1518735600.76,13900,9.94,73160.8,-10.99,-21.13,-20.35,0,*6F
1518735602.02,13901,10.0,73164.5,-10.99,-21.13,-20.19,0,*60
1518735603.24,13902,10.0,73164.3,-11.01,-21.17,-20.25,0,*68
1518735604.48,13903,9.94,73166.3,-11.01,-21.13,-20.35,0,*6C
1518735605.7,13904,10.0,73164.8,-11.01,-21.17,-20.25,0,*6E
1518735606.92,13905,9.94,73166.8,-11.01,-21.17,-20.25,0,*6F
1518735608.16,13906,9.94,73160.8,-11.01,-21.13,-20.19,0,*67
1518735609.45,13907,9.94,73160.0,-11.03,-21.03,-20.15,0,*69
1518735610.69,13908,9.94,73160.5,-11.01,-20.83,-19.95,0,*6F
1518735611.94,13909,9.94,73158.8,-11.01,-20.83,-19.95,0,*6E
1518735613.21,13910,9.94,73154.5,-11.03,-21.03,-20.09,0,*62
1518735614.47,13911,9.94,73152.5,-10.99,-20.83,-20.05,0,*64
1518735615.74,13912,9.94,73156.0,-10.99,-20.99,-19.95,0,*6F
1518735617.01,13913,9.94,73156.8,-10.99,-20.99,-19.95,0,*6E
1518735618.25,13914,9.94,73156.8,-11.01,-20.99,-19.95,0,*69
1518735619.5,13915,9.94,73150.8,-11.01,-21.03,-19.95,0,*6A
1518735620.74,13916,9.94,73154.3,-11.01,-20.99,-20.05,0,*68
1518735621.98,13917,9.94,73154.3,-10.97,-21.03,-20.05,0,*65
1518735623.25,13918,9.94,73154.8,-11.03,-21.03,-20.09,0,*6A
1518735624.52,13919,9.94,73154.5,-10.99,-21.03,-19.95,0,*66
1518735625.79,13920,9.94,73148.0,-10.99,-20.99,-19.95,0,*6E
1518735627.03,13921,9.94,73146.5,-11.01,-20.99,-19.91,0,*6B
1518735628.27,13922,9.94,73146.5,-11.01,-21.03,-19.91,0,*6A
1518735629.51,13923,9.94,73142.0,-11.01,-20.83,-19.91,0,*62
1518735630.78,13924,9.94,73140.0,-10.99,-20.99,-19.91,0,*6E
1518735632.04,13925,9.94,73142.5,-10.99,-20.99,-19.91,0,*6F
1518735633.26,13926,9.94,73144.0,-11.01,-20.89,-19.91,0,*6D
1518735634.5,13927,9.94,73146.5,-11.01,-20.83,-19.91,0,*66
1518735635.72,13928,9.94,73146.8,-11.01,-20.89,-19.91,0,*63
1518735636.98,13929,9.94,73144.5,-10.99,-20.99,-19.91,0,*63
1518735638.23,13930,9.94,73148.0,-11.01,-20.99,-19.91,0,*6B
1518735639.49,13931,9.94,73148.8,-10.99,-20.99,-19.91,0,*6A
1518735640.75,13932,9.94,73152.3,-11.01,-20.99,-19.81,0,*68
1518735642.0,13933,10.0,73158.0,-11.03,-20.93,-19.95,0,*64
1518735643.26,13934,9.94,73152.5,-10.99,-20.89,-19.81,0,*6F
1518735644.55,13935,9.94,73150.8,-10.99,-20.99,-19.81,0,*6F
1518735645.82,13936,9.94,73148.8,-10.99,-20.99,-19.91,0,*6D
1518735647.08,13937,9.94,73152.3,-10.99,-20.99,-19.91,0,*6C
1518735648.35,13938,9.94,73156.0,-10.99,-21.03,-19.91,0,*61
1518735649.61,13939,9.94,73156.3,-10.99,-20.99,-19.91,0,*62
1518735650.85,13940,9.94,73156.0,-10.97,-21.03,-19.91,0,*60
1518735652.09,13941,9.94,73158.3,-11.01,-21.03,-19.91,0,*6F
1518735653.33,13942,9.94,73156.3,-11.01,-21.03,-19.91,0,*6C
1518735654.6,13943,9.94,73160.3,-11.01,-21.03,-19.81,0,*6C
1518735655.86,13944,9.94,73158.5,-10.99,-21.03,-19.91,0,*6A
1518735657.1,13945,9.94,73158.0,-11.03,-21.09,-19.95,0,*67
1518735658.37,13946,9.94,73156.3,-11.01,-21.03,-19.81,0,*69
1518735659.6,13947,9.94,73156.3,-11.01,-21.13,-19.81,0,*69
1518735660.85,13948,9.94,73158.5,-11.03,-21.09,-19.95,0,*6A
1518735662.14,13949,10.0,73156.8,-11.03,-21.03,-19.85,0,*60
1518735663.43,13950,9.94,73156.8,-11.03,-21.03,-19.85,0,*68
1518735664.67,13951,9.94,73158.0,-11.03,-21.09,-19.95,0,*62
1518735665.91,13952,9.94,73158.8,-11.01,-21.03,-19.91,0,*6D
1518735667.15,13953,9.94,73160.0,-11.01,-21.03,-19.91,0,*6C
1518735668.41,13954,9.94,73156.0,-11.03,-21.09,-19.85,0,*66
1518735669.66,13955,9.94,73158.5,-11.03,-21.17,-19.95,0,*69
1518735670.9,13956,9.94,73156.8,-11.03,-21.17,-19.95,0,*6A
1518735672.2,13957,9.94,73158.8,-11.03,-21.03,-19.85,0,*6F
1518735673.46,13958,9.94,73156.8,-11.03,-21.17,-19.85,0,*65
1518735674.72,13959,9.94,73156.3,-11.03,-21.09,-19.81,0,*6F
1518735675.96,13960,9.94,73156.5,-11.01,-21.03,-19.75,0,*66
1518735677.23,13961,9.94,73154.0,-11.01,-21.03,-19.81,0,*6C
1518735678.49,13962,9.94,73154.8,-11.03,-21.09,-19.85,0,*63
1518735679.75,13963,9.94,73156.8,-11.03,-21.03,-19.71,0,*63
1518735681.04,13964,9.94,73154.3,-11.03,-21.03,-19.81,0,*6B
1518735682.28,13965,9.94,73156.3,-11.03,-21.09,-19.71,0,*6F
1518735683.52,13966,9.94,73154.0,-11.01,-21.03,-19.75,0,*60
1518735684.76,13967,9.94,73152.5,-11.03,-21.09,-19.71,0,*6D
1518735686.02,13968,9.94,73154.8,-11.03,-21.09,-19.81,0,*6D
1518735687.28,13969,9.94,73156.8,-11.03,-21.09,-19.81,0,*6C
1518735688.52,13970,10.0,73160.5,-11.05,-21.09,-19.81,0,*62
1518735689.78,13971,9.94,73156.0,-11.05,-21.03,-19.81,0,*69
1518735691.05,13972,9.94,73154.5,-11.05,-21.03,-19.65,0,*60
1518735692.32,13973,9.94,73152.0,-11.03,-21.03,-19.71,0,*62
1518735693.59,13974,9.94,73150.0,-11.03,-21.03,-19.71,0,*65
1518735694.85,13975,10.0,73154.8,-11.03,-21.03,-19.71,0,*64
1518735696.12,13976,9.94,73154.0,-11.03,-21.03,-19.71,0,*67
1518735697.38,13977,9.94,73152.5,-11.03,-21.17,-19.81,0,*6C
1518735698.62,13978,9.94,73156.3,-11.05,-21.09,-19.81,0,*6A
1518735699.85,13979,9.94,73154.8,-11.09,-21.09,-19.75,0,*6C
1518735701.06,13980,10.0,73152.8,-11.05,-21.09,-19.71,0,*62
1518735702.28,13981,9.94,73156.0,-11.05,-21.17,-19.71,0,*6C
1518735703.54,13982,9.94,73150.8,-11.09,-21.27,-19.75,0,*64
1518735704.78,13983,9.94,73154.3,-11.05,-21.17,-19.65,0,*6B
1518735706.02,13984,9.94,73154.5,-11.05,-21.03,-19.71,0,*6C
1518735707.24,13985,10.0,73154.8,-11.05,-21.13,-19.75,0,*68
1518735708.48,13986,9.94,73152.3,-11.05,-21.09,-19.61,0,*65
1518735709.77,13987,9.94,73154.8,-11.09,-20.99,-19.61,0,*60
1518735711.03,13988,9.94,73150.8,-11.09,-21.09,-19.61,0,*67
1518735712.29,13989,9.94,73150.3,-11.09,-21.09,-19.57,0,*63
1518735713.52,13990,9.94,73154.3,-11.09,-21.09,-19.71,0,*6F
1518735714.74,13991,9.94,73152.5,-11.09,-21.09,-19.71,0,*6E
1518735715.99,13992,9.94,73156.5,-11.05,-21.03,-19.71,0,*6B
1518735717.21,13993,9.94,73152.0,-11.09,-21.09,-19.71,0,*6C
1518735718.46,13994,9.94,73152.3,-11.05,-21.03,-19.71,0,*6D
1518735719.67,13995,9.94,73152.5,-11.05,-21.09,-19.75,0,*62
1518735720.9,13996,9.94,73152.8,-11.09,-21.09,-19.71,0,*69
1518735722.14,13997,9.94,73152.5,-11.05,-21.03,-19.71,0,*6E
1518735723.4,13998,9.94,73158.0,-11.09,-20.99,-19.71,0,*6F
1518735724.66,13999,10.0,73158.8,-11.09,-21.09,-19.61,0,*67
1518735725.94,14000,9.94,73158.0,-11.09,-20.99,-19.61,0,*61
1518735727.17,14001,9.94,73156.8,-11.09,-21.09,-19.71,0,*69
1518735728.4,14002,10.0,73158.5,-11.09,-21.09,-19.75,0,*6E
1518735729.63,14003,9.94,73156.8,-11.09,-21.09,-19.75,0,*6F
1518735730.91,14004,10.0,73162.0,-11.05,-21.03,-19.57,0,*6E
1518735732.16,14005,9.94,73160.5,-11.09,-20.99,-19.71,0,*65
1518735733.42,14006,9.94,73160.8,-11.09,-20.93,-19.61,0,*6D
1518735734.71,14007,9.94,73154.3,-11.09,-20.83,-19.57,0,*68
1518735735.96,14008,9.94,73158.8,-11.05,-20.93,-19.57,0,*6A
1518735737.22,14009,9.94,73154.8,-11.09,-20.79,-19.51,0,*65
1518735738.48,14010,10.0,73156.5,-11.09,-20.79,-19.37,0,*6D
1518735739.71,14011,10.0,73156.3,-11.09,-20.63,-19.37,0,*67
1518735740.97,14012,9.94,73148.0,-11.09,-20.69,-19.41,0,*6F
1518735742.18,14013,9.94,73146.3,-11.05,-20.73,-19.47,0,*6F
1518735743.44,14014,9.94,73150.0,-11.09,-20.79,-19.51,0,*69
1518735744.67,14015,9.94,73150.3,-11.03,-20.73,-19.51,0,*68
1518735745.93,14016,10.0,73158.3,-11.09,-20.79,-19.51,0,*6B
1518735747.14,14017,9.94,73154.8,-11.05,-20.73,-19.47,0,*6B
1518735748.4,14018,9.94,73152.0,-11.09,-20.83,-19.51,0,*60
1518735749.61,14019,9.94,73154.3,-11.05,-20.73,-19.47,0,*65
1518735750.82,14020,9.94,73152.5,-11.05,-20.73,-19.51,0,*68
1518735752.04,14021,9.94,73158.5,-11.05,-20.73,-19.51,0,*69
1518735753.32,14022,9.94,73160.8,-11.09,-20.79,-19.57,0,*6A
1518735754.54,14023,9.94,73164.3,-11.05,-20.73,-19.51,0,*6B
1518735755.82,14024,9.94,73160.8,-11.09,-20.79,-19.61,0,*69
1518735757.11,14025,9.94,73162.3,-11.09,-20.83,-19.61,0,*6D
1518735758.39,14026,10.0,73166.3,-11.09,-20.79,-19.57,0,*6E
1518735759.65,14027,9.94,73164.0,-11.09,-20.69,-19.61,0,*6B
1518735760.9,14028,9.94,73158.5,-11.05,-20.63,-19.65,0,*66
1518735762.15,14029,10.0,73162.5,-11.05,-20.63,-19.57,0,*66
1518735763.37,14030,9.94,73160.3,-11.05,-20.63,-19.51,0,*68
1518735764.62,14031,9.94,73162.3,-11.09,-20.69,-19.61,0,*6C
1518735765.87,14032,10.0,73164.8,-11.05,-20.69,-19.61,0,*63
1518735767.1,14033,9.94,73162.0,-11.09,-20.69,-19.71,0,*6F
1518735768.33,14034,9.94,73160.0,-11.09,-20.69,-19.71,0,*68
1518735769.59,14035,9.94,73162.3,-11.09,-20.69,-19.61,0,*68
1518735770.82,14036,9.94,73164.3,-11.09,-20.69,-19.71,0,*6A
1518735772.05,14037,9.94,73166.5,-11.09,-20.63,-19.71,0,*61
1518735773.28,14038,9.94,73166.5,-11.09,-20.63,-19.71,0,*6E
1518735774.54,14039,9.94,73166.0,-11.09,-20.69,-19.61,0,*64
1518735775.78,14040,10.0,73164.5,-11.09,-20.63,-19.75,0,*65
1518735776.99,14041,9.94,73160.5,-11.11,-20.63,-19.75,0,*6D
1518735778.22,14042,9.94,73162.8,-11.09,-20.63,-19.71,0,*63
1518735779.49,14043,9.94,73166.3,-11.11,-20.49,-19.61,0,*62
1518735780.75,14044,9.94,73164.8,-11.11,-20.49,-19.61,0,*65
1518735781.99,14045,9.94,73162.5,-11.11,-20.49,-19.71,0,*65
1518735783.22,14046,9.94,73160.8,-11.11,-20.49,-19.71,0,*66
1518735784.48,14047,9.94,73160.5,-11.09,-20.53,-19.71,0,*65
1518735785.72,14048,9.94,73160.3,-11.09,-20.43,-19.71,0,*6B
1518735786.99,14049,9.94,73148.3,-11.09,-20.35,-19.61,0,*6A
1518735788.27,14050,9.94,73150.3,-11.09,-20.35,-19.61,0,*62
1518735789.54,14051,10.0,73162.3,-11.11,-20.35,-19.57,0,*6F
1518735790.77,14052,9.94,73158.8,-11.11,-20.35,-19.71,0,*68
1518735792.02,14053,9.94,73160.3,-11.09,-20.35,-19.71,0,*60
1518735793.25,14054,9.94,73158.0,-11.11,-20.19,-19.71,0,*60
1518735794.45,14055,9.94,73160.3,-11.11,-20.29,-19.71,0,*62
1518735795.65,14056,9.94,73162.5,-11.11,-20.29,-19.75,0,*65
1518735796.86,14057,9.94,73164.5,-11.11,-20.29,-19.75,0,*64
1518735798.06,14058,9.94,73160.5,-11.11,-20.29,-19.75,0,*6B
1518735799.29,14059,9.94,73158.5,-11.11,-20.29,-19.85,0,*65
1518735800.54,14060,10.0,73160.0,-11.11,-20.35,-19.85,0,*62
1518735801.77,14061,9.94,73162.5,-11.11,-20.29,-19.85,0,*6E
1518735802.97,14062,9.94,73160.3,-11.11,-20.29,-19.91,0,*68
1518735804.2,14063,9.94,73160.8,-11.09,-20.29,-19.99,0,*68
1518735805.42,14064,9.94,73164.0,-11.09,-20.29,-19.99,0,*6F
1518735806.64,14065,9.94,73166.5,-11.09,-20.29,-19.99,0,*6E
1518735807.85,14066,9.94,73162.8,-11.11,-20.29,-19.99,0,*64
1518735809.08,14067,9.94,73162.3,-11.11,-20.19,-19.91,0,*6E
1518735810.34,14068,9.94,73160.8,-11.09,-20.19,-19.99,0,*60
1518735811.57,14069,9.94,73162.8,-11.13,-20.25,-20.05,0,*6A
1518735812.81,14070,10.0,73160.3,-11.11,-20.15,-19.99,0,*6C
1518735814.04,14071,9.94,73158.3,-11.11,-20.19,-19.99,0,*61
1518735815.27,14072,9.94,73154.8,-11.11,-20.19,-19.99,0,*62
1518735816.53,14073,9.94,73156.5,-11.11,-20.19,-20.15,0,*6D
1518735817.75,14074,9.94,73156.5,-11.11,-20.29,-20.15,0,*69
1518735819.03,14075,9.94,73160.3,-11.13,-20.35,-20.35,0,*65
1518735820.26,14076,9.94,73160.3,-11.11,-20.29,-20.35,0,*69
1518735821.5,14077,9.94,73166.3,-11.13,-20.25,-20.25,0,*67
1518735822.74,14078,9.94,73164.0,-11.11,-20.15,-20.29,0,*65
1518735824.0,14079,9.94,73156.8,-11.11,-20.19,-20.19,0,*6B
1518735825.23,14080,9.94,73154.0,-11.11,-20.15,-20.29,0,*62
1518735826.46,14081,9.94,73158.3,-11.11,-20.29,-20.35,0,*61
1518735827.71,14082,9.94,73160.8,-11.11,-20.15,-20.35,0,*6D
1518735828.92,14083,10.0,73158.3,-11.11,-20.29,-20.43,0,*62
1518735830.16,14084,10.0,73158.5,-11.11,-20.29,-20.53,0,*64
1518735831.39,14085,9.94,73152.5,-11.11,-20.29,-20.53,0,*65
1518735832.63,14086,9.94,73154.5,-11.11,-20.19,-20.63,0,*66
1518735833.89,14087,10.0,73158.5,-11.11,-20.19,-20.53,0,*64
1518735835.1,14088,9.94,73160.8,-11.11,-20.29,-20.63,0,*6B
1518735836.31,14089,9.94,73156.3,-11.11,-20.29,-20.63,0,*6A
1518735837.54,14090,9.94,73158.0,-11.11,-20.19,-20.69,0,*6B
1518735838.78,14091,9.94,73156.0,-11.13,-20.25,-20.73,0,*6C
1518735840.04,14092,10.0,73158.3,-11.13,-20.35,-20.73,0,*6E
1518735841.3,14093,9.94,73156.0,-11.11,-20.35,-20.83,0,*62
1518735842.57,14094,9.94,73162.8,-11.13,-20.35,-20.89,0,*6D
1518735843.83,14095,9.94,73160.5,-11.11,-20.35,-20.83,0,*64
1518735845.09,14096,9.94,73162.3,-11.13,-20.39,-20.99,0,*62
1518735846.33,14097,9.94,73164.5,-11.11,-20.35,-20.93,0,*67
1518735847.6,14098,10.0,73166.3,-11.13,-20.39,-20.99,0,*6C
1518735848.86,14099,9.94,73162.3,-11.13,-20.39,-20.99,0,*6D
1518735850.1,14100,10.0,73164.3,-11.11,-20.35,-20.93,0,*68
1518735851.33,14101,9.94,73160.3,-11.11,-20.29,-20.99,0,*6E
1518735852.59,14102,9.94,73156.8,-11.13,-20.49,-21.17,0,*6E
1518735853.86,14103,10.0,73160.0,-11.13,-20.53,-21.17,0,*64
1518735855.15,14104,10.0,73162.3,-11.13,-20.53,-21.27,0,*60
1518735856.44,14105,9.94,73158.0,-11.13,-20.53,-21.33,0,*64
1518735857.68,14106,9.94,73158.8,-11.13,-20.59,-21.43,0,*6A
1518735858.95,14107,10.0,73164.0,-11.11,-20.53,-21.27,0,*61
1518735860.16,14108,9.94,73158.0,-11.15,-20.69,-21.47,0,*65
1518735861.41,14109,9.94,73158.0,-11.13,-20.59,-21.47,0,*61
1518735862.64,14110,9.94,73158.3,-11.11,-20.49,-21.43,0,*6E
1518735863.85,14111,9.94,73156.3,-11.11,-20.73,-21.47,0,*62
1518735865.09,14112,9.94,73158.8,-11.13,-20.69,-21.47,0,*68
1518735866.33,14113,10.0,73160.0,-11.13,-20.69,-21.63,0,*6F
1518735867.56,14114,10.0,73162.3,-11.11,-20.69,-21.57,0,*6D
1518735868.79,14115,9.94,73162.8,-11.13,-20.69,-21.63,0,*69
1518735870.06,14116,10.0,73164.3,-11.13,-20.73,-21.67,0,*65
1518735871.29,14117,9.94,73162.8,-11.13,-20.73,-21.77,0,*65
1518735872.53,14118,10.0,73166.5,-11.13,-20.73,-21.77,0,*6A
1518735873.8,14119,10.0,73166.5,-11.13,-20.83,-21.93,0,*6E
1518735875.04,14120,9.94,73164.0,-11.15,-20.83,-21.93,0,*62
1518735876.26,14121,9.94,73162.0,-11.15,-20.89,-21.93,0,*69
1518735877.5,14122,9.94,73162.0,-11.15,-21.03,-21.93,0,*69
1518735878.78,14123,9.94,73162.5,-11.17,-21.03,-21.97,0,*6E
1518735880.05,14124,9.94,73164.3,-11.15,-20.99,-21.97,0,*69
1518735881.31,14125,9.94,73164.0,-11.15,-20.99,-21.97,0,*68
1518735882.55,14126,9.94,73166.0,-11.15,-21.03,-22.07,0,*63
1518735883.79,14127,9.94,73168.3,-11.15,-21.03,-22.07,0,*62
1518735885.03,14128,9.94,73166.5,-11.15,-21.03,-22.11,0,*6A
1518735886.29,14129,9.94,73168.5,-11.15,-21.03,-22.21,0,*68
1518735887.5,14130,9.94,73168.5,-11.15,-21.13,-22.27,0,*67
1518735888.74,14131,9.94,73166.5,-11.15,-21.13,-22.21,0,*60
1518735890.0,14132,9.94,73170.5,-11.17,-21.23,-22.41,0,*64
1518735891.21,14133,9.94,73166.8,-11.15,-21.17,-22.27,0,*60
1518735892.45,14134,9.94,73170.0,-11.15,-21.27,-22.27,0,*64
1518735893.69,14135,9.94,73170.3,-11.15,-21.27,-22.41,0,*65
1518735894.92,14136,9.94,73166.5,-11.15,-21.33,-22.53,0,*60
1518735896.19,14137,10.0,73166.5,-11.17,-21.33,-22.57,0,*67
1518735897.49,14138,10.0,73166.5,-11.17,-21.33,-22.47,0,*69
1518735898.73,14139,9.94,73160.5,-11.15,-21.27,-22.53,0,*6A
1518735899.99,14140,9.94,73164.5,-11.17,-21.27,-22.57,0,*62
1518735901.26,14141,10.0,73166.5,-11.17,-21.33,-22.57,0,*66
1518735902.49,14142,10.0,73164.8,-11.15,-21.33,-22.41,0,*60
1518735903.76,14143,9.94,73166.0,-11.17,-21.39,-22.47,0,*6F
1518735905.02,14144,10.0,73166.3,-11.17,-21.47,-22.77,0,*62
1518735906.29,14145,9.94,73164.0,-11.17,-21.47,-22.77,0,*63
1518735907.56,14146,10.0,73166.3,-11.17,-21.53,-22.67,0,*64
1518735908.83,14147,10.0,73164.5,-11.17,-21.47,-22.77,0,*61
1518735910.12,14148,9.94,73164.8,-11.17,-21.53,-22.77,0,*6B
1518735911.39,14149,9.94,73166.0,-11.17,-21.53,-22.67,0,*6B
1518735912.66,14150,9.94,73166.0,-11.17,-21.47,-22.77,0,*67
1518735913.9,14151,9.94,73164.8,-11.17,-21.47,-22.67,0,*67
1518735915.2,14152,9.94,73160.0,-11.17,-21.53,-22.77,0,*60
1518735916.49,14153,9.94,73162.5,-11.17,-21.53,-22.77,0,*61
1518735917.73,14154,9.94,73162.0,-11.17,-21.47,-22.67,0,*62
1518735919.03,14155,10.0,73166.3,-11.17,-21.53,-22.77,0,*67
1518735920.33,14156,10.0,73166.5,-11.17,-21.53,-22.77,0,*64
1518735921.62,14157,10.0,73162.5,-11.17,-21.57,-22.77,0,*61
1518735922.88,14158,9.94,73162.5,-11.17,-21.57,-22.83,0,*65
1518735924.15,14159,9.94,73164.8,-11.17,-21.67,-22.93,0,*66
1518735925.42,14160,9.94,73166.8,-11.17,-21.67,-22.93,0,*6C
1518735926.69,14161,9.94,73166.0,-11.17,-21.67,-22.83,0,*6C
1518735927.96,14162,10.0,73164.5,-11.17,-21.67,-22.83,0,*6F
1518735929.22,14163,10.0,73166.0,-11.17,-21.67,-22.83,0,*6E
1518735930.49,14164,9.94,73166.5,-11.17,-21.57,-22.83,0,*6A
1518735931.76,14165,9.94,73162.3,-11.17,-21.67,-22.83,0,*68
1518735933.0,14166,9.94,73162.5,-11.21,-21.63,-22.97,0,*6F
1518735934.27,14167,9.94,73162.3,-11.17,-21.67,-22.97,0,*6F
1518735935.48,14168,9.94,73164.5,-11.19,-21.73,-22.87,0,*6A
1518735936.7,14169,9.94,73160.0,-11.19,-21.73,-22.87,0,*6B
1518735937.92,14170,10.0,73158.8,-11.19,-21.73,-22.83,0,*67
1518735939.17,14171,10.0,73156.8,-11.19,-21.87,-22.97,0,*68
1518735940.38,14172,9.94,73156.5,-11.19,-21.77,-22.87,0,*65
1518735941.65,14173,9.94,73156.8,-11.17,-21.83,-22.93,0,*64
1518735942.92,14174,9.94,73158.8,-11.17,-21.83,-22.93,0,*63
1518735944.17,14175,9.94,73158.0,-11.19,-21.87,-22.97,0,*6C
1518735945.42,14176,9.94,73156.8,-11.19,-21.87,-22.97,0,*6F
1518735946.69,14177,9.94,73158.3,-11.17,-21.83,-22.93,0,*60
1518735947.93,14178,9.94,73154.0,-11.17,-21.73,-22.93,0,*60
1518735949.2,14179,10.0,73154.3,-11.17,-21.83,-22.93,0,*6E
1518735950.42,14180,10.0,73152.3,-11.19,-21.93,-22.97,0,*63
1518735951.64,14181,10.0,73150.8,-11.19,-21.93,-22.97,0,*62
1518735952.86,14182,10.0,73152.0,-11.19,-21.93,-22.97,0,*61
1518735954.08,14183,9.94,73150.3,-11.19,-21.93,-22.87,0,*61
1518735955.3,14184,10.0,73156.3,-11.19,-22.03,-22.97,0,*6D
1518735956.54,14185,9.94,73156.8,-11.19,-22.03,-23.03,0,*60
1518735957.75,14186,10.0,73160.3,-11.19,-22.07,-23.13,0,*66
1518735958.98,14187,10.0,73162.5,-11.19,-22.07,-23.03,0,*66
1518735960.22,14188,9.94,73158.0,-11.17,-22.11,-22.97,0,*6C
1518735961.46,14189,9.94,73162.0,-11.19,-22.07,-23.03,0,*68
1518735962.69,14190,10.0,73166.0,-11.19,-22.07,-23.03,0,*60
1518735963.97,14191,10.0,73166.3,-11.19,-22.17,-23.03,0,*60
1518735965.26,14192,10.0,73164.0,-11.21,-22.17,-23.03,0,*68
1518735966.53,14193,10.0,73166.8,-11.19,-22.21,-23.03,0,*67
1518735967.8,14194,10.0,73170.0,-11.19,-22.21,-23.03,0,*60
1518735969.04,14195,10.0,73164.3,-11.19,-22.31,-23.13,0,*61
1518735970.34,14196,10.0,73164.8,-11.21,-22.21,-23.03,0,*69
1518735971.63,14197,9.94,73162.3,-11.21,-22.21,-23.03,0,*68
1518735972.9,14198,10.0,73166.5,-11.19,-22.31,-23.03,0,*6D
1518735974.16,14199,9.94,73166.0,-11.21,-22.31,-23.13,0,*66
1518735975.41,14200,9.94,73166.0,-11.21,-22.37,-23.13,0,*63
1518735976.65,14201,9.94,73166.8,-11.19,-22.37,-23.03,0,*68
1518735977.94,14202,9.94,73164.5,-11.21,-22.31,-23.03,0,*66
1518735979.21,14203,10.0,73166.8,-11.21,-22.21,-22.97,0,*6A
1518735980.48,14204,9.94,73160.0,-11.21,-22.21,-22.97,0,*6D
1518735981.77,14205,9.94,73160.0,-11.21,-22.21,-23.03,0,*60
1518735983.07,14206,10.0,73164.8,-11.21,-22.21,-23.03,0,*63
1518735984.36,14207,10.0,73162.5,-11.21,-22.31,-23.03,0,*63
1518735985.65,14208,10.0,73164.5,-11.21,-22.31,-23.03,0,*6C
1518735986.92,14209,9.94,73160.3,-11.21,-22.21,-22.97,0,*60
1518735988.19,14210,9.94,73156.3,-11.21,-22.21,-22.97,0,*68
1518735989.46,14211,10.0,73160.5,-11.21,-22.31,-22.97,0,*68
1518735990.72,14212,9.94,73162.3,-11.21,-22.21,-22.97,0,*6A
1518735991.99,14213,9.94,73160.5,-11.21,-22.31,-22.97,0,*6A
1518735993.21,14214,9.94,73158.0,-11.19,-22.37,-22.97,0,*60
1518735994.48,14215,9.94,73156.0,-11.21,-22.37,-23.03,0,*66
1518735995.75,14216,9.94,73160.3,-11.21,-22.37,-23.03,0,*65
1518735997.04,14217,10.0,73160.3,-11.21,-22.47,-23.03,0,*63
1518735998.31,14218,10.0,73162.5,-11.21,-22.37,-23.03,0,*6B
1518735999.61,14219,10.0,73160.0,-11.21,-22.47,-23.03,0,*6D
1518736000.88,14220,10.0,73162.3,-11.19,-22.47,-23.03,0,*6C
1518736002.15,14221,10.0,73160.3,-11.21,-22.37,-23.03,0,*61
1518736003.37,14222,10.0,73158.8,-11.19,-22.53,-23.13,0,*6A
1518736004.62,14223,10.0,73156.8,-11.19,-22.53,-23.03,0,*6A
1518736005.87,14224,10.0,73156.8,-11.19,-22.53,-23.03,0,*6D
1518736007.11,14225,9.94,73158.0,-11.19,-22.53,-23.03,0,*6C
1518736008.35,14226,10.0,73158.0,-11.21,-22.63,-23.13,0,*66
1518736009.59,14227,10.0,73154.3,-11.19,-22.63,-23.03,0,*6D
1518736010.83,14228,9.94,73148.5,-11.21,-22.53,-23.13,0,*6B
1518736012.05,14229,10.0,73158.8,-11.19,-22.63,-23.13,0,*62
1518736013.29,14230,9.94,73160.0,-11.19,-22.53,-23.29,0,*60
1518736014.56,14231,10.0,73164.3,-11.21,-22.67,-23.19,0,*6E
1518736015.8,14232,10.0,73156.3,-11.21,-22.67,-23.13,0,*67
1518736017.09,14233,9.94,73156.0,-11.21,-22.73,-23.19,0,*69
1518736018.35,14234,9.94,73152.8,-11.21,-22.67,-23.19,0,*6B
1518736019.61,14235,9.94,73154.0,-11.19,-22.73,-23.33,0,*6C
1518736020.87,14236,9.94,73152.5,-11.19,-22.73,-23.29,0,*64
1518736022.14,14237,10.0,73158.3,-11.19,-22.73,-23.33,0,*6E
1518736023.4,14238,10.0,73160.0,-11.19,-22.73,-23.33,0,*61
1518736024.66,14239,9.94,73160.8,-11.19,-22.73,-23.33,0,*60
1518736025.91,14240,10.0,73158.3,-11.21,-22.67,-23.43,0,*67
1518736027.17,14241,9.94,73158.0,-11.19,-22.73,-23.33,0,*6F
1518736028.4,14242,10.0,73156.5,-11.19,-22.87,-23.33,0,*67
1518736029.67,14243,10.0,73160.8,-11.21,-22.83,-23.33,0,*69
1518736030.91,14244,10.0,73160.8,-11.19,-22.83,-23.33,0,*65
1518736032.14,14245,10.0,73154.3,-11.19,-22.87,-23.33,0,*60
1518736033.38,14246,9.94,73154.8,-11.21,-22.87,-23.43,0,*6F
1518736034.6,14247,10.0,73158.8,-11.19,-22.87,-23.43,0,*65
1518736035.86,14248,10.0,73158.8,-11.21,-22.87,-23.49,0,*6B
1518736037.13,14249,10.0,73162.0,-11.21,-22.97,-23.49,0,*6B
1518736038.38,14250,10.0,73160.8,-11.19,-23.03,-23.43,0,*6E
1518736039.67,14251,9.94,73158.3,-11.21,-23.03,-23.49,0,*6E
1518736040.92,14252,10.0,73158.0,-11.19,-23.03,-23.43,0,*6C
1518736042.18,14253,10.0,73154.5,-11.21,-22.97,-23.49,0,*60
1518736043.48,14254,10.0,73158.5,-11.21,-23.03,-23.49,0,*6B
1518736044.71,14255,9.94,73158.5,-11.21,-23.13,-23.59,0,*6A
1518736045.98,14256,9.94,73162.8,-11.21,-23.03,-23.59,0,*68
1518736047.24,14257,10.0,73160.3,-11.21,-23.19,-23.59,0,*62
1518736048.48,14258,10.0,73158.0,-11.21,-23.13,-23.59,0,*67
1518736049.74,14259,9.94,73156.0,-11.21,-23.19,-23.59,0,*6C
1518736050.98,14260,10.0,73156.5,-11.23,-23.19,-23.59,0,*64
1518736052.23,14261,10.0,73156.8,-11.23,-23.19,-23.59,0,*65
1518736053.47,14262,9.94,73160.0,-11.23,-23.19,-23.59,0,*66
1518736054.7,14263,10.0,73164.3,-11.23,-23.29,-23.59,0,*64
1518736055.97,14264,9.94,73160.3,-11.23,-23.19,-23.65,0,*6F
1518736057.21,14265,10.0,73162.8,-11.23,-23.29,-23.59,0,*62
1518736058.47,14266,9.94,73158.5,-11.23,-23.29,-23.69,0,*62
1518736059.76,14267,9.94,73158.0,-11.25,-23.33,-23.65,0,*62
1518736061.02,14268,10.0,73160.8,-11.25,-23.23,-23.59,0,*63
1518736062.26,14269,10.0,73162.0,-11.23,-23.29,-23.59,0,*6E
1518736063.54,14270,9.94,73162.8,-11.25,-23.33,-23.69,0,*68
1518736064.8,14271,10.0,73164.8,-11.23,-23.29,-23.65,0,*68
1518736066.04,14272,10.0,73166.5,-11.25,-23.39,-23.75,0,*6D
1518736067.29,14273,10.0,73166.5,-11.25,-23.39,-23.69,0,*61
1518736068.55,14274,10.0,73164.0,-11.25,-23.39,-23.69,0,*66
1518736069.81,14275,9.94,73160.5,-11.25,-23.49,-23.75,0,*6D
1518736071.08,14276,10.0,73164.3,-11.23,-23.33,-23.69,0,*68
1518736072.36,14277,10.0,73166.8,-11.25,-23.49,-23.69,0,*62
1518736073.63,14278,9.94,73166.3,-11.25,-23.49,-23.75,0,*60
1518736074.91,14279,9.94,73164.0,-11.25,-23.49,-23.69,0,*6C
1518736076.2,14280,10.0,73166.8,-11.25,-23.49,-23.69,0,*6A
1518736077.49,14281,10.0,73166.5,-11.25,-23.49,-23.65,0,*67
1518736078.74,14282,10.0,73166.8,-11.25,-23.39,-23.65,0,*63
1518736080.0,14283,10.0,73166.8,-11.25,-23.39,-23.65,0,*62
1518736081.25,14284,10.0,73168.0,-11.25,-23.39,-23.65,0,*65
1518736082.51,14285,10.0,73164.0,-11.25,-23.39,-23.69,0,*68
1518736083.79,14286,9.94,73166.3,-11.25,-23.49,-23.65,0,*60
1518736085.08,14287,9.94,73166.0,-11.25,-23.49,-23.65,0,*61
1518736086.35,14288,10.0,73166.0,-11.27,-23.53,-23.65,0,*67
1518736087.59,14289,10.0,73164.0,-11.31,-23.59,-23.69,0,*67
1518736088.86,14290,10.0,73164.0,-11.27,-23.53,-23.65,0,*6E
1518736090.12,14291,10.0,73166.5,-11.27,-23.53,-23.65,0,*6F
1518736091.39,14292,10.0,73164.8,-11.27,-23.53,-23.65,0,*6C
1518736092.62,14293,9.94,73166.3,-11.31,-23.39,-23.69,0,*6A
1518736093.89,14294,10.0,73166.8,-11.27,-23.49,-23.53,0,*64
1518736095.13,14295,10.0,73166.8,-11.27,-23.39,-23.53,0,*62
1518736096.36,14296,10.0,73166.8,-11.27,-23.39,-23.49,0,*6A
1518736097.6,14297,10.0,73166.0,-11.31,-23.39,-23.53,0,*67
1518736098.81,14298,9.94,73164.3,-11.31,-23.39,-23.43,0,*69
1518736100.05,14299,10.0,73164.8,-11.31,-23.39,-23.53,0,*69